sat.trackr.live / text

‹ back to catalog

STARLINK-6214

NORAD 56480 · 2023-064AJ

PAYLOAD ACTIVE UNKNOWN

§ Identity

Operator
Country
US
Launch date
2023-05-10
Launch site
AFWTR
Launch vehicle
Mass (kg)
RCS (m²)

Purposes: comms

External: N2YO · Heavens-Above · Gunter

§ Orbital elements

Epoch: 2026-05-24T17:34:02.620128Z

Period
93.74 min
Inclination
69.9916°
Eccentricity
0.0003255
Mean motion
15.36109025 rev/d
Perigee alt
455.4 km
Apogee alt
459.9 km
Semi-major
6,835.8 km
B*
4.1342e-4
RAAN
252.2154°
Arg perigee
282.6291°
Mean anomaly
77.4523°
Rev number
16,814

§ Raw data

STARLINK-62141 56480U 23064AJ  26144.73197477  .00014476  00000+0  41342-3 0  99982 56480  69.9916 252.2154 0003255 282.6291  77.4523 15.36109025168141

JSON: /api/v1/satellites/56480 · /tle

For live sub-satellite position, see the globe view (requires WebGL).

§ Visibility from observer

Set your observer location to see the next 7 days of passes ≥ 10°. The values pass through the URL so the page stays shareable.

No JS? Fill the form by hand. The geolocation button needs JavaScript.